Weather History for KESC - December, 2011

Change the Weather History Date:

Thursday, December 29, 2011

  Actual Average Record
Temperature  
Mean Temperature 28 °F -  
Max Temperature 33 °F 24 °F 39 °F (1984)
Min Temperature 24 °F 9 °F -19 °F (1976)
Degree Days  
Heating Degree Days 36    
Moisture  
Dew Point 25 °F    
Average Humidity 77    
Maximum Humidity 87    
Minimum Humidity 59    
Precipitation  
Precipitation 0.03 in - - ()
Sea Level Pressure  
Sea Level Pressure 29.61 in    
Wind  
Wind Speed 6 mph (SE)    
Max Wind Speed 15 mph    
Max Gust Speed 22 mph    
Visibility 6 miles    
Events      
Averages and records for this station are not official NWS values.
T = Trace of Precipitation, MM = Missing Value Source: NWS Daily Summary

Daily Weather History Graph

Daily Weather History Graph

Search for Another Location

Airport or City:

Trip Planner

Search our weather history database for the weather conditions in past years. The results will help you decide how hot, cold, wet, or windy it might be!

Date:

Astronomy

Dec. 29, 2011 Rise Set
Actual Time 8:28 AM EST 5:11 PM EST
Civil Twilight 7:54 AM EST 5:46 PM EST
Nautical Twilight 7:16 AM EST 6:23 PM EST
Astronomical Twilight 6:40 AM EST 7:00 PM EST
Moon 11:05 AM EST (12/29) 11:06 PM EST (12/29)
Length of Visible Light 9h 51m
Length of Day
8h 42m
Waxing Crescent, 26% of the Moon is Illuminated
Dec 29
Waxing Crescent
Jan 1
First Quarter
Jan 9
Full
Jan 16
Last Quarter
Jan 23
New

Hourly Weather History & Observations

Time (EST) Temp. Windchill Dew Point Humidity Pressure Visibility Wind Dir Wind Speed Gust Speed Precip Events Conditions
12:15 AM 28.4 °F 21.2 °F 15.8 °F 59% 29.81 in 10.0 mi South 6.9 mph - N/A   Overcast
12:35 AM 28.4 °F 21.2 °F 15.8 °F 59% 29.80 in 10.0 mi SSW 6.9 mph - N/A   Overcast
1:35 AM 24.8 °F 20.5 °F 14.0 °F 64% 29.77 in 10.0 mi WNW 3.5 mph - N/A   Overcast
1:55 AM 24.8 °F - 14.0 °F 64% 29.75 in 10.0 mi Calm Calm - N/A   Overcast
2:15 AM 24.8 °F - 14.0 °F 64% 29.74 in 10.0 mi Calm Calm - N/A   Overcast
2:35 AM 24.8 °F - 14.0 °F 64% 29.73 in 10.0 mi Calm Calm - N/A   Overcast
2:55 AM 24.8 °F - 14.0 °F 64% 29.72 in 10.0 mi Calm Calm - N/A   Overcast
3:15 AM 24.8 °F - 15.8 °F 69% 29.71 in 10.0 mi Calm Calm - N/A   Overcast
3:35 AM 24.8 °F 20.5 °F 15.8 °F 69% 29.70 in 10.0 mi South 3.5 mph - N/A   Overcast
3:55 AM 28.4 °F 21.2 °F 17.6 °F 64% 29.69 in 10.0 mi South 6.9 mph - N/A   Overcast
4:15 AM 30.2 °F 23.4 °F 17.6 °F 60% 29.68 in 10.0 mi South 6.9 mph - N/A   Overcast
4:55 AM 30.2 °F 24.3 °F 19.4 °F 64% 29.64 in 10.0 mi South 5.8 mph - N/A   Overcast
5:35 AM 30.2 °F 26.7 °F 21.2 °F 69% 29.62 in 10.0 mi SE 3.5 mph - N/A   Overcast
6:15 AM 32.0 °F 25.6 °F 23.0 °F 69% 29.61 in 10.0 mi ESE 6.9 mph - N/A   Overcast
6:35 AM 32.0 °F 25.6 °F 24.8 °F 75% 29.60 in 10.0 mi ESE 6.9 mph - N/A   Overcast
6:55 AM 33.8 °F 25.8 °F 26.6 °F 75% 29.59 in 10.0 mi SSE 10.4 mph 19.6 mph N/A   Overcast
7:15 AM 33.8 °F 25.8 °F 26.6 °F 75% 29.59 in 10.0 mi SSE 10.4 mph - N/A   Overcast
7:35 AM 33.8 °F 27.7 °F 26.6 °F 75% 29.59 in 10.0 mi South 6.9 mph - N/A   Overcast
7:55 AM 33.8 °F 29.6 °F 24.8 °F 70% 29.59 in 10.0 mi South 4.6 mph - N/A   Overcast
8:15 AM 33.8 °F 30.8 °F 24.8 °F 70% 29.58 in 10.0 mi South 3.5 mph - N/A   Overcast
8:55 AM 33.8 °F 24.3 °F 26.6 °F 75% 29.58 in 9.0 mi SE 13.8 mph - N/A   Overcast
9:15 AM 33.8 °F 23.9 °F 28.4 °F 81% 29.57 in 7.0 mi SSE 15.0 mph - N/A   Overcast
9:55 AM 33.8 °F 24.8 °F 28.4 °F 81% 29.57 in 3.0 mi SE 12.7 mph 19.6 mph N/A   Overcast
10:15 AM 33.8 °F 23.9 °F 28.4 °F 81% 29.57 in 3.0 mi SE 15.0 mph 19.6 mph N/A   Overcast
10:35 AM 33.8 °F 23.9 °F 28.4 °F 81% 29.57 in 3.0 mi SE 15.0 mph 21.9 mph N/A   Overcast
10:55 AM 33.8 °F 24.8 °F 26.6 °F 75% 29.57 in 2.5 mi SE 12.7 mph 19.6 mph N/A   Overcast
11:15 AM 33.8 °F 24.8 °F 28.4 °F 81% 29.56 in 2.0 mi SE 12.7 mph - N/A   Overcast
12:15 PM 32.0 °F 23.0 °F 28.4 °F 87% 29.54 in 2.0 mi SE 11.5 mph 17.3 mph N/A   Overcast
12:35 PM 33.8 °F 25.3 °F 28.4 °F 81% 29.53 in 2.0 mi SE 11.5 mph 16.1 mph N/A   Overcast
12:55 PM 33.8 °F 25.8 °F 28.4 °F 81% 29.53 in 1.8 mi SE 10.4 mph - N/A   Overcast
1:15 PM 33.8 °F 25.8 °F 26.6 °F 75% 29.52 in 1.8 mi SE 10.4 mph - 0.01 in   Overcast
1:55 PM 33.8 °F 25.3 °F 28.4 °F 81% 29.51 in 1.5 mi SE 11.5 mph 16.1 mph 0.02 in   Overcast
2:15 PM 33.8 °F 26.4 °F 28.4 °F 81% 29.51 in 2.0 mi SE 9.2 mph - N/A   Overcast
2:35 PM 33.8 °F 26.4 °F 28.4 °F 81% 29.51 in 2.0 mi ESE 9.2 mph - N/A   Overcast
2:55 PM 33.8 °F 27.0 °F 28.4 °F 81% 29.52 in 2.0 mi ESE 8.1 mph - N/A   Overcast
3:35 PM 33.8 °F 26.4 °F 28.4 °F 81% 29.53 in 1.5 mi ESE 9.2 mph - N/A   Overcast
4:15 PM 32.0 °F 24.8 °F 28.4 °F 87% 29.55 in 1.0 mi ESE 8.1 mph - N/A   Overcast
4:35 PM 32.0 °F 24.8 °F 28.4 °F 87% 29.55 in 1.0 mi ESE 8.1 mph - 0.01 in   Overcast
4:55 PM 32.0 °F 26.4 °F 28.4 °F 87% 29.56 in 1.0 mi East 5.8 mph - 0.01 in   Overcast
5:15 PM 32.0 °F 25.6 °F 28.4 °F 87% 29.57 in 1.0 mi East 6.9 mph - N/A   Overcast
6:15 PM 32.0 °F 28.7 °F 28.4 °F 87% 29.59 in 1.8 mi East 3.5 mph - N/A   Overcast
6:35 PM 32.0 °F 28.7 °F 28.4 °F 87% 29.59 in 1.8 mi East 3.5 mph - N/A   Overcast
6:55 PM 32.0 °F 28.7 °F 28.4 °F 87% 29.59 in 1.5 mi East 3.5 mph - N/A   Overcast
7:15 PM 32.0 °F 27.5 °F 28.4 °F 87% 29.60 in 2.0 mi East 4.6 mph - N/A   Overcast
7:35 PM 32.0 °F - 28.4 °F 87% 29.61 in 2.0 mi Calm Calm - N/A   Overcast
8:15 PM 32.0 °F - 28.4 °F 87% 29.62 in 3.0 mi Calm Calm - N/A   Overcast
8:35 PM 32.0 °F - 28.4 °F 87% 29.62 in 2.5 mi Calm Calm - N/A   Overcast
8:55 PM 32.0 °F 28.7 °F 28.4 °F 87% 29.62 in 1.8 mi NW 3.5 mph - N/A   Overcast
9:35 PM 32.0 °F 24.8 °F 26.6 °F 80% 29.63 in 3.0 mi NW 8.1 mph - N/A   Overcast
10:35 PM 30.2 °F 21.9 °F 24.8 °F 80% 29.65 in 10.0 mi NW 9.2 mph - N/A   Overcast
10:55 PM 30.2 °F 22.6 °F 24.8 °F 80% 29.66 in 9.0 mi NW 8.1 mph - N/A   Overcast
11:35 PM 30.2 °F 25.4 °F 24.8 °F 80% 29.66 in 10.0 mi NW 4.6 mph - N/A   Overcast